Weather in Ilinskoe-Khovanskoe

Russia / Ivanovo Oblast     56°58′17″N   39°46′17″E
temp.,
°C
wind,
m/s
gust,
m/s
humid.,
%
clouds,
%
prec.,
mm/h
press.,
hPa
HPBL,
m
26 july, mon
mon2600:00+16sw2251100 0.0 102138
03:00+16wsw235695 0.0 102145
06:00+14wnw23660 0.0 102293
09:00+21w34449 0.0 1022803
12:00+22wsw5544100 0.0 1022853
15:00+25wsw473996 0.0 10202450
18:00+23w25484 0.0 1020456
21:00+20wsw3458100 0.0 102089
27 july, tue
tue2700:00+17w3469100 0.0 102046
03:00+15wnw227215 0.0 102121
06:00+16nnw25735 0.0 1021136
09:00+23n34495 0.0 1021663
12:00+26n353452 0.0 10202060
15:00+27nnw3432100 0.0 10192365
18:00+25ese114272 0.0 1019408
21:00+20se115982 0.1 101814
28 july, wed
wed2800:00+17ssw22777 1.3 101826
03:00+15sw33865 2.3 101829
06:00+16wsw24885 0.0 1017100
09:00+23sw236095 0.0 1016399
12:00+28ssw453613 0.0 10141965
15:00+25w4753100 0.3 1012472
18:00+22w2368100 1.1 1011108
21:00+17nne1298100 4.9 101156
29 july, thu
thu2900:00+17se4898100 2.0 1008281
03:00+17ssw51097100 3.2 1006615
06:00+18wsw51097100 0.4 1004539
09:00+19w6109399 0.9 1003726
12:00+22wnw8117637 0.3 10041151
15:00+25nw8125148 0.6 10041750
18:00+26nnw374963 0.0 10041263
21:00+20sw226962 0.0 100416
30 july, fri
fri3000:00+20wsw51369100 0.1 1005465
03:00+18wsw41180100 0.1 1005325
06:00+18wsw388516 0.0 1005249
09:00+22w56617 0.0 1006841
12:00+26w68410 0.0 10051971
15:00+27w79340 0.0 10052526
18:00+26w68355 0.0 10051978
21:00+19wsw46540 0.0 100686